TimeNZDT,TemperatureF,Dew PointF,Humidity,Sea Level PressureIn,VisibilityMPH,Wind Direction,Wind SpeedMPH,Gust SpeedMPH,PrecipitationIn,Events,Conditions,WindDirDegrees,DateUTC
12:50 AM,-23.8,-9999,N/A,28.82,6.2,ENE,12.7,-,N/A,,Clear,60,2012-11-26 11:50:00
1:00 AM,-24,,,,7,ENE,12.7,,,,,60,2012-11-26 12:00:00
1:50 AM,-22.0,-9999,N/A,28.82,6.2,ENE,11.5,-,N/A,,Clear,70,2012-11-26 12:50:00
2:50 AM,-23.8,-9999,N/A,28.82,6.2,East,12.7,-,N/A,,Clear,80,2012-11-26 13:50:00
3:50 AM,-22.0,-9999,N/A,28.81,6.2,ENE,12.7,-,N/A,,Clear,70,2012-11-26 14:50:00
4:50 AM,-22.0,-9999,N/A,28.81,6.2,East,12.7,-,N/A,,Clear,80,2012-11-26 15:50:00
5:50 AM,-22.0,-9999,N/A,28.81,6.2,ENE,13.8,-,N/A,,Clear,60,2012-11-26 16:50:00
6:50 AM,-22.0,-9999,N/A,28.82,6.2,ENE,13.8,-,N/A,,Clear,60,2012-11-26 17:50:00
7:00 AM,-22,,,,7,ENE,12.7,,,,,70,2012-11-26 18:00:00
7:50 AM,-22.0,-9999,N/A,28.83,6.2,ENE,12.7,-,N/A,,Clear,60,2012-11-26 18:50:00
8:50 AM,-22.0,-9999,N/A,28.83,6.2,NE,11.5,-,N/A,,Ice Crystals,50,2012-11-26 19:50:00
9:50 AM,-22.0,-9999,N/A,28.83,6.2,NE,15.0,-,N/A,,Ice Crystals,50,2012-11-26 20:50:00
10:50 AM,-22.0,-9999,N/A,28.83,5.6,ENE,15.0,-,N/A,,Ice Crystals,60,2012-11-26 21:50:00
11:50 AM,-22.0,-9999,N/A,28.84,5.0,ENE,13.8,-,N/A,,Ice Crystals,60,2012-11-26 22:50:00
12:50 PM,-23.8,-9999,N/A,28.84,5.6,ENE,12.7,-,N/A,,Ice Crystals,60,2012-11-26 23:50:00
1:00 PM,-23,,,,6,ENE,12.7,,,Snow,Snow,60,2012-11-27 00:00:00
1:50 PM,-23.8,-9999,N/A,28.84,5.6,ENE,13.8,-,N/A,,Ice Crystals,60,2012-11-27 00:50:00
2:50 PM,-23.8,-9999,N/A,28.84,3.7,NE,11.5,-,N/A,,Ice Crystals,50,2012-11-27 01:50:00
3:50 PM,-23.8,-9999,N/A,28.84,3.7,ENE,11.5,-,N/A,,Ice Crystals,60,2012-11-27 02:50:00
4:50 PM,-25.6,-9999,N/A,28.83,6.2,ENE,11.5,-,N/A,,Ice Crystals,60,2012-11-27 03:50:00
5:50 PM,-25.6,-9999,N/A,28.82,6.2,ENE,10.4,-,N/A,,Ice Crystals,70,2012-11-27 04:50:00
6:50 PM,-25.6,-9999,N/A,28.82,6.2,ENE,11.5,-,N/A,,Ice Crystals,60,2012-11-27 05:50:00
7:00 PM,-25,,,,7,ENE,11.5,,,Snow,Snow,60,2012-11-27 06:00:00
7:50 PM,-23.8,-9999,N/A,28.82,6.2,ENE,10.4,-,N/A,,Partly Cloudy,60,2012-11-27 06:50:00
8:50 PM,-23.8,-9999,N/A,28.81,6.2,ENE,10.4,-,N/A,,Partly Cloudy,70,2012-11-27 07:50:00